Location: Overspoor
(51.4747°N, 5.6641°E)
Time: 00:32:52
(UTC+02:00)

N. Korean satellite - Pass Details

Date: 21 January 2022
Orbit: 438 x 478 km, 97.3° (Epoch: 21 May)

Event Time Altitude Azimuth Distance (km) Brightness Sun altitude
Rises 07:34:44 0° 356° (N) 2,620 10.0 -8.6°
Reaches altitude 10° 07:37:55 10° 326° (NW) 1,739 8.9 -8.1°
Maximum altitude 07:39:26 12° 302° (WNW) 1,603 8.5 -7.9°
Drops below altitude 10° 07:40:59 10° 278° (W) 1,741 8.7 -7.7°
Enters shadow 07:43:09 - 255° (WSW) 2,285 9.5 -7.4°
